Tracking 29892 objects as of 21-Nov-2024
HD Live streaming from Space Station
objects crossing your sky now

COSMOS 1188 DEB

Track COSMOS 1188 DEB now!


NORAD ID: 26677
Int'l Code: 1980-050G
Perigee: 4,541.0 km
Apogee: 37,185.9 km
Inclination: 72.4 °
Period: 745.5 minutes
Semi major axis: 27234 km
RCS: 0.177 m2 (medium)
Launch date: June 14, 1980
Source: Commonwealth of Independent States (former USSR) (CIS)
Launch site: PLESETSK MISSILE AND SPACE COMPLEX (PKMTR)

Note: This is SATELLITE DEBRIS
Your satellite tracking list
Your tracking list is empty




NASA's NSSDC Master Catalog

Two Line Element Set (TLE):
1 26677U 80050G   24325.27983036 -.00000029  00000-0  00000-0 0  9997
2 26677  72.4462 205.0413 5993318 177.7949 345.0351  1.93163748218006
Source of the keplerian elements: AFSPC